{"data":{"norad_id":46556,"intl_designator":"2020-070AA","name":"STARLINK-1676","alt_names":[],"object_type":"PAYLOAD","status":"ACTIVE","operator":null,"country":"US","launch_date":"2020-10-06","launch_site_code":"AFETR","launch_vehicle":null,"mission":null,"orbit_class":"UNKNOWN","rcs_meters":null,"size_class":null,"mass_kg":null,"dimensions":null,"purposes":["comms"],"wikipedia_slug":null,"has_3d_model":false,"image_url":null,"decayed_at":null,"tle_current":{"epoch":"2026-05-25T03:32:30.930144Z","epoch_age_seconds":62566,"freshness":"FRESH","line1":"1 46556U 20070AA  26145.14758021  .00075844  00000+0  71106-3 0  9996","line2":"2 46556  53.0379 132.8337 0009564  28.1928 331.9603 15.66497694311889","mean_motion":15.66497694,"eccentricity":0.0009564,"inclination_deg":53.0379,"raan_deg":132.8337,"arg_perigee_deg":28.1928,"mean_anomaly_deg":331.9603,"bstar":0.00071106,"rev_number":31188,"period_min":91.924808157426,"perigee_km":362.4819459835,"apogee_km":375.38774500957,"semimajor_km":6747.0718454965,"source":"CELESTRAK","updated_at":"2026-05-25T13:38:16.510730Z"}}}